Home > Weather > Horsham > Past weeks

Flag for United Kingdom Past Weather in Horsham, England, United Kingdom — Yesterday and Last 2 Weeks

Now
61 °F

Passing clouds.


Feels Like: 61 °F
Forecast: 54 / 65 °F
Wind: 13 mph from Southwest

Location: London / Gatwick Airport

Current Time: Jul 1, 2016 at 12:06:55 AM

Latest Report: Jun 30, 2016 at 11:20 PM


Visibility: N/A

Pressure: 29.83 "Hg

Humidity: 88%

Dew Point: 57 °F

Location of HorshamLocation

Past Weather in Horsham — Graph

°F

Horsham Temperature Yesterday

Maximum temperature yesterday: 68 °F (at 12:50 PM)
Minimum temperature yesterday: 55 °F (at 1:50 AM)
Average temperature yesterday: 61 °F

High & Low Weather Summary for the Past Weeks

 TemperatureHumidityPressure
High72 °F (Jun 27, 3:20 PM)100% (Jun 17, 12:50 AM)30.24 "Hg (Jun 17, 12:50 AM)
Low50 °F (Jun 19, 5:20 AM)49% (Jun 28, 1:20 PM)29.50 "Hg (Jun 15, 10:20 PM)
Average60 °F85%29.96 "Hg
* Reported Jun 15 10:20 PM — Jun 30 10:20 PM, Horsham, Weather by CustomWeather, © 2016

Note: Actual official high and low records may vary slightly from our data, if they occured in-between our weather recording intervals... More about our weather records

Advertising

Horsham Weather History for the Previous 24 Hours

Scroll right to see more
 ConditionsComfort  
Time TempWeatherWind HumidityBarometerVisibility
10:20 PM
Thu, Jun 30
61 °FPassing clouds.12 mph88%29.83 "HgN/A
9:50 PM61 °FPartly sunny.13 mph88%29.83 "HgN/A
9:20 PM61 °FPartly sunny.12 mph88%29.83 "HgN/A
8:50 PM61 °FPartly sunny.9 mph88%29.83 "HgN/A
8:20 PM61 °FPartly sunny.12 mph83%29.83 "HgN/A
7:50 PM63 °FScattered clouds.10 mph77%29.83 "HgN/A
7:20 PM63 °FPassing clouds.12 mph77%29.83 "HgN/A
6:50 PM63 °FBroken clouds.12 mph77%29.83 "HgN/A
6:20 PM63 °FBroken clouds.14 mph77%29.83 "HgN/A
5:50 PM64 °FScattered clouds.13 mph73%29.83 "HgN/A
5:20 PM64 °FScattered clouds.14 mph78%29.83 "HgN/A
4:50 PM66 °FBroken clouds.12 mph73%29.83 "HgN/A
4:20 PM64 °FScattered clouds.10 mph78%29.83 "HgN/A
3:50 PM64 °FBroken clouds.10 mph78%29.83 "HgN/A
3:20 PM64 °FPartly sunny.13 mph78%29.83 "HgN/A
2:50 PM64 °FBroken clouds.12 mph78%29.83 "HgN/A
2:20 PM66 °FPartly sunny.13 mph68%29.83 "HgN/A
1:50 PM66 °FPartly sunny.10 mph68%29.83 "HgN/A
1:20 PM66 °FPassing clouds.9 mph68%29.83 "HgN/A
12:50 PM68 °FPassing clouds.12 mph69%29.83 "HgN/A
12:20 PM66 °FBroken clouds.9 mph73%29.83 "HgN/A
11:50 AM64 °FBroken clouds.10 mph78%29.83 "HgN/A
11:20 AM64 °FPartly sunny.10 mph78%29.83 "HgN/A
10:50 AM63 °FScattered clouds.8 mph83%29.83 "HgN/A
10:20 AM63 °FBroken clouds.7 mph83%29.80 "HgN/A
9:50 AM61 °FBroken clouds.6 mph88%29.80 "HgN/A
9:20 AM61 °FBroken clouds.3 mph88%29.80 "HgN/A
8:50 AM59 °FBroken clouds.5 mph94%29.80 "HgN/A
8:20 AM59 °FScattered showers. Broken clouds.3 mph94%29.80 "HgN/A
7:50 AM57 °FDrizzle. Broken clouds.2 mph94%29.80 "Hg4 mi
7:20 AM57 °FLight rain. Broken clouds.3 mph94%29.80 "HgN/A
6:50 AM55 °FDrizzle. Partly sunny.5 mph100%29.77 "Hg1 mi
6:20 AM55 °FDrizzle. Partly sunny.No wind100%29.77 "Hg4 mi
5:50 AM55 °FDrizzle. Partly sunny.2 mph100%29.77 "Hg2 mi
5:20 AM55 °FPassing clouds.2 mph100%29.77 "Hg2 mi
4:50 AM55 °FPartly cloudy.3 mph100%29.77 "Hg2 mi
4:20 AM55 °FPassing clouds.5 mph100%29.77 "HgN/A
3:50 AM55 °FLight rain. Partly cloudy.3 mph94%29.77 "HgN/A
3:20 AM55 °FPassing clouds.6 mph94%29.77 "HgN/A
2:50 AM55 °FPassing clouds.6 mph94%29.77 "HgN/A
2:20 AM55 °FPassing clouds.6 mph100%29.77 "HgN/A
1:50 AM55 °FPartly cloudy.6 mph100%29.77 "HgN/A
1:20 AM57 °FPassing clouds.7 mph88%29.77 "HgN/A
12:50 AM57 °FPassing clouds.7 mph94%29.77 "HgN/A
12:20 AM57 °FLight rain. Passing clouds.7 mph94%29.77 "HgN/A
Weather by CustomWeather, © 2016

See weather overviewHow to use our weather pages